Regional Weather Roundup
Issued by NWS

Home | Current Version | Previous Version | Text Only | Print | Product List | Glossary On
Versions: 1 2 3 4 5 6 7 8 9 10 11 12 13 14 15 16 17 18 19 20 21 22 23 24 25 26 27 28 29 30 31 32 33 34 35 36 37 38 39 40 41 42 43 44 45 46 47 48 49 50
000
ASCA42 TJSJ 020711
RWRPR
PUERTO RICO/U.S. VIRGIN ISLANDS HOURLY WEATHER ROUNDUP
NATIONAL WEATHER SERVICE SAN JUAN PR
300 AM AST SAT AUG 02 2014

PRZ001-004-020800-
PUERTO RICO

CITY           SKY/WX    TMP DP  RH WIND       PRES   REMARKS
SAN JUAN LMM   PTCLDY    82  75  78 NE18      29.95F
PONCE          PTCLDY    81  72  74 E6        29.91S
CEIBA          MOCLDY    82  72  69 E9        29.98F
$$

PRZ006-007-020800-
U.S. VIRGIN ISLANDS

CITY           SKY/WX    TMP DP  RH WIND       PRES   REMARKS
CHARLOTTE AMA  PTCLDY    82  73  74 E10       29.93F
CHRISTIANSTED  MOCLDY    77  73  88 E13       29.92F
$$

HOURLY WEATHER ROUNDUP FOR THE NEWS MEDIA

CITY           SKY/WX    TMP DP  RH WIND       PRES   REMARKS
MIAMI          PTCLDY    81  75  82 N5        29.94F
ORLANDO        CLEAR     78  75  90 E3        29.95F
NEW YORK       CLOUDY    72  68  87 E6        30.17F
NEWARK         LGT RAIN  73  67  81 NE3       30.16F
CHICAGO        PTCLDY    64  53  67 W7        30.08S
HARTFORD       LGT RAIN  68  65  90 CALM      30.21F
BOSTON         CLOUDY    68  65  90 S5        30.21F
DALLAS         CLEAR     70  66  87 CALM      30.05F
PHILADELPHIA   LGT RAIN  71  66  84 SW3       30.16F


USA.gov is the U.S. government's official web portal to all federal, state and local government web resources and services.